Regional Weather Roundup
Issued by NWS Little Rock, AR

Home | Current Version | Previous Version | Graphics & Text | Print | Product List | Glossary On
Versions: 1 2 3 4 5 6 7 8 9 10 11 12 13 14 15 16 17 18 19 20 21 22 23 24 25 26 27 28 29 30 31 32 33 34 35 36 37 38 39 40 41 42 43 44 45 46 47 48 49 50
000
ASUS44 KLZK 250600
RWRLZK
ARKANSAS STATE WEATHER ROUNDUP
NATIONAL WEATHER SERVICE LITTLE ROCK AR
ISSUED BY NATIONAL WEATHER SERVICE MEMPHIS TN
100 AM CDT WED APR 25 2018

NOTE: "FAIR" INDICATES FEW OR NO CLOUDS BELOW 12,000 FEET WITH NO
SIGNIFICANT WEATHER AND/OR OBSTRUCTIONS TO VISIBILITY.

ARZ001-003-010-029-250700-
NORTHWEST ARKANSAS

CITY           SKY/WX    TMP DP  RH WIND       PRES   REMARKS
FORT SMITH     CLEAR     58  45  62 CALM      30.06S
6HR MIN TEMP:  58; 6HR MAX TEMP:  79;

HARRISON       CLEAR     59  40  49 W6        30.07F
6HR MIN TEMP:  58; 6HR MAX TEMP:  71;

BENTONVILLE    CLEAR     56  43  61 CALM      30.10F
6HR MIN TEMP:  56; 6HR MAX TEMP:  72;

SILOAM SPGS    CLEAR     53  41  63 CALM      30.09F
6HR MIN TEMP:  53; 6HR MAX TEMP:  71;

HIGHFILL       CLEAR     53  39  59 CALM      30.08F
6HR MIN TEMP:  53; 6HR MAX TEMP:  71;

$$

ARZ004-005-016-250700-
NORTH CENTRAL ARKANSAS

CITY           SKY/WX    TMP DP  RH WIND       PRES   REMARKS
BATESVILLE     CLEAR     55  52  89 CALM      30.06S
6HR MIN TEMP:  54; 6HR MAX TEMP:  72;

FLIPPIN        CLEAR     53  48  83 CALM      30.06S
6HR MIN TEMP:  53; 6HR MAX TEMP:  74;

MTN HOME       CLEAR     58  47  66 CALM      30.05S
6HR MIN TEMP:  57; 6HR MAX TEMP:  73;

$$

ARZ040-041-250700-
WEST CENTRAL ARKANSAS

CITY           SKY/WX    TMP DP  RH WIND       PRES   REMARKS
MOUNT IDA      CLEAR     54  47  77 CALM      30.05R
6HR MIN TEMP:  53; 6HR MAX TEMP:  78;

$$

ARZ017-025-026-028-250700-
NORTHEAST ARKANSAS

CITY           SKY/WX    TMP DP  RH WIND       PRES   REMARKS
JONESBORO      FAIR      54  54 100 W3        30.02F
6HR MIN TEMP:  52; 6HR MAX TEMP:  67;

NEWPORT        FAIR      57  54  89 W5        30.04
6HR MIN TEMP:  56; 6HR MAX TEMP:  68;

WALNUT RIDGE   FAIR      56  54  93 W5        30.03S
6HR MIN TEMP:  55; 6HR MAX TEMP:  67;

BLYTHEVILLE    FAIR      55  52  89 CALM      30.02S
6HR MIN TEMP:  55; 6HR MAX TEMP:  63;

$$

ARZ022-033-042-044-250700-
CENTRAL ARKANSAS

CITY           SKY/WX    TMP DP  RH WIND       PRES   REMARKS
LITTLE ROCK    CLEAR     56  56 100 CALM      30.06R
6HR MIN TEMP:  55; 6HR MAX TEMP:  72;

SEARCY         FOG       53  53 100 CALM      30.06R VSB 3/4
6HR MIN TEMP:  53; 6HR MAX TEMP:  70;

HOT SPRINGS    CLEAR     58  51  78 E5        30.07R
6HR MIN TEMP:  57; 6HR MAX TEMP:  79;

RUSSELLVILLE   CLEAR     54  50  86 CALM      30.05R
6HR MIN TEMP:  54; 6HR MAX TEMP:  79;

$$

ARZ036-250700-
EAST ARKANSAS

CITY           SKY/WX    TMP DP  RH WIND       PRES   REMARKS
WEST MEMPHIS   FAIR      54  54 100 CALM      30.02S FOG
6HR MIN TEMP:  54; 6HR MAX TEMP:  67;

$$

ARZ050-070-073-250700-
SOUTHWEST ARKANSAS

CITY           SKY/WX    TMP DP  RH WIND       PRES   REMARKS
TEXARKANA      CLOUDY    59  53  80 CALM      30.05R
6HR MIN TEMP:  59; 6HR MAX TEMP:  77;

EL DORADO      FAIR      59  57  93 CALM      30.04S
6HR MIN TEMP:  57; 6HR MAX TEMP:  77;

DEQUEEN        CLOUDY    53  52  96 E3        30.04R
6HR MIN TEMP:  53; 6HR MAX TEMP:  79;

$$

ARZ056-057-069-250700-
SOUTHEAST ARKANSAS

CITY           SKY/WX    TMP DP  RH WIND       PRES   REMARKS
PINE BLUFF     FAIR      59  56  89 CALM      30.05R
6HR MIN TEMP:  59; 6HR MAX TEMP:  72;

STUTTGART      FAIR      58  56  93 CALM      30.05S
6HR MIN TEMP:  58; 6HR MAX TEMP:  71;

MONTICELLO     FAIR      59  55  87 SE3       30.05R
6HR MIN TEMP:  58; 6HR MAX TEMP:  73;

$$





USA.gov is the U.S. government's official web portal to all federal, state and local government web resources and services.